CO-58
1 28895U 05043F 09260.25574701 .00000122 00000-0 34941-4 0 3974
2 28895 098.0437 148.2275 0018879 061.5325 298.7754 14.59795182207168
FALCON
1 30776U 07006E 09260.41619302 .00000295 00000-0 24358-4 0 6594
2 30776 035.4344 259.8201 0001742 344.2642 015.8020 15.03302509138987
MAST
1 31126U 07012K 09260.69301320 -.00000144 00000-0 -21925-4 0 6872
2 31126 097.9791 311.2163 0094662 353.5211 006.4770 14.53515090128470
CAPE1
1 31130U 07012P 09260.68527319 -.00000038 00000-0 19778-5 0 6970
2 31130 097.9807 309.1883 0102909 359.6081 000.5016 14.52085486128113
COMPASS
1 32787U 08021E 09260.28605451 .00000322 00000-0 47574-4 0 4652
2 32787 097.9341 323.2908 0017090 093.3623 266.9535 14.81655008 75086
AAUSAT2
1 32788U 08021F 09259.63848704 .00000110 00000-0 20721-4 0 04672
2 32788 097.9339 322.7231 0016900 096.2258 264.0877 14.81779288074996
DO-64
1 32789U 08021G 09260.74066799 .00000280 00000-0 42191-4 0 4766
2 32789 097.9373 324.0385 0016876 090.7834 269.5312 14.81790128 75150
CO-66
1 32791U 08021J 09260.74494242 .00000181 00000-0 29820-4 0 4581
2 32791 097.9362 323.7787 0017407 089.4018 270.9187 14.81477166 75119
RS-30
1 32953U 08025A 09260.35033873 .00000010 00000-0 00000 0 0 4070
2 32953 082.5027 199.3022 0019345 342.4073 017.6341 12.43003101 59842
TACSAT-3
1 35001U 09028A 09260.80993862 .00002358 00000-0 64811-4 0 993
2 35001 040.4548 046.6380 0022739 130.4330 229.8472 15.39160440 18624
PHARMSAT
1 35002U 09028B 09260.74985356 .00002169 00000-0 58577-4 0 965
2 35002 040.4682 046.2920 0025370 134.2619 226.0282 15.39915071 18611
HAWKSAT1
1 35003U 09028C 09259.80034946 .00004165 00000-0 10446-3 0 1007
2 35003 040.4622 051.3227 0025544 132.6730 227.6251 15.40628816 18480
CP6
1 35004U 09028D 09259.79931168 .00005154 00000-0 12763-3 0 943
2 35004 040.4595 051.3119 0024992 129.6314 230.6707 15.40689374 18475
AEROCUB3
1 35005U 09028E 09260.78616511 .00004880 00000-0 12193-3 0 950
2 35005 040.4740 045.7330 0025286 135.8423 224.4416 15.40493796 18623
DRAGNSAT
1 35690U 09038B 09260.88061712 .00027068 00000-0 13018-3 0 476
2 35690 051.6396 188.0706 0002019 253.1658 106.9109 15.82451940 7818
POLLUX
1 35693U 09038E 09260.77133799 .00024591 00000-0 12217-3 0 492
2 35693 051.6392 188.8470 0003399 173.5523 186.5545 15.81808893 7765
CASTOR
1 35694U 09038F 09260.78714765 .00012853 00000-0 68432-4 0 479
2 35694 051.6409 188.9607 0003667 183.9743 176.1227 15.80877262 7762
